Flag for Germany Weather past 2 weeks in Kehl, Baden-Württemberg, Germany

Now
61 °F

Sunny.


Feels Like: 61 °F
Forecast: 41 / 65 °F
Wind: 15 mph from North

Location: Strasbourg Airport

Current Time: May 26, 2015 at 6:01:44 PM

Latest Report: May 26, 2015 at 5:30 PM


Visibility: 10 mi

Pressure: 30.12 "Hg

Humidity: 52%

Dew point: 43 °F

Location of KehlLocation

Historic Weather in Kehl — Graph

°F

Kehl temperature yesterday

Maximum temperature yesterday: 70 °F (at 1:30 PM)
Minimum temperature yesterday: 55 °F (at 6:30 AM)
Average temperature yesterday: 62 °F

Past Weeks' High & Low Weather Summary

 TemperatureHumidityPressure
High88 °F (May 12, 2:00 PM)100% (May 14, 2:30 AM)30.33 "Hg (May 14, 2:30 AM)
Low41 °F (May 22, 5:30 AM)26% (May 22, 7:30 PM)29.74 "Hg (May 18, 5:30 PM)
Average60 °F65%30.06 "Hg
* Reported May 11 5:00 PM — May 26 5:00 PM, Kehl, Weather by CustomWeather, © 2015

Note: Actual official high and low records may vary slightly from our data, if they occured in-between our weather recording intervals... More about our weather records

Advertising

Kehl weather history for previous 24 hours

 ConditionsComfort  
Time TempWeatherWind HumidityBarometerVisibility
5:00 PM
Tue, May 26
61 °FCloudy.16 mph52%30.12 "HgN/A
4:30 PM61 °FMore clouds than sun.12 mph55%30.12 "HgN/A
4:00 PM61 °FBroken clouds.13 mph59%30.12 "HgN/A
3:30 PM61 °FBroken clouds.10 mph59%30.09 "HgN/A
3:00 PM61 °FMore clouds than sun.10 mph59%30.09 "HgN/A
2:30 PM59 °FPartly sunny.12 mph59%30.09 "HgN/A
2:00 PM61 °FPartly sunny.8 mph59%30.09 "HgN/A
1:30 PM59 °FPartly sunny.8 mph63%30.09 "HgN/A
1:00 PM59 °FPartly sunny.8 mph63%30.09 "HgN/A
12:30 PM59 °FPartly sunny.7 mph63%30.09 "HgN/A
12:00 PM57 °FMore clouds than sun.9 mph67%30.09 "HgN/A
11:30 AM57 °FBroken clouds.10 mph72%30.09 "HgN/A
11:00 AM55 °FPartly sunny.10 mph77%30.09 "HgN/A
10:30 AM55 °FPartly sunny.12 mph72%30.07 "HgN/A
10:00 AM54 °FOvercast.8 mph77%30.07 "HgN/A
9:30 AM54 °FPartly sunny.8 mph77%30.07 "HgN/A
9:00 AM54 °FBroken clouds.10 mph77%30.07 "HgN/A
8:30 AM54 °FBroken clouds.9 mph77%30.04 "HgN/A
8:00 AM54 °FBroken clouds.8 mph77%30.04 "HgN/A
7:30 AM54 °FPartly sunny.9 mph82%30.01 "HgN/A
7:00 AM54 °FPartly sunny.10 mph82%30.01 "HgN/A
6:30 AM54 °FPartly cloudy.8 mph82%30.01 "HgN/A
6:00 AM54 °FPartly cloudy.10 mph82%30.01 "HgN/A
5:30 AM54 °FMostly cloudy.9 mph82%29.98 "HgN/A
5:00 AM54 °FMostly cloudy.9 mph82%29.98 "HgN/A
4:30 AM54 °FPassing clouds.7 mph82%29.98 "HgN/A
4:00 AM52 °FClear.6 mph88%29.98 "Hg10 mi
3:30 AM54 °FPassing clouds.3 mph82%29.98 "HgN/A
3:00 AM54 °FClear.6 mph82%29.98 "Hg10 mi
2:30 AM54 °FClear.6 mph82%29.98 "Hg10 mi
2:00 AM54 °FPartly cloudy.7 mph88%29.98 "HgN/A
1:30 AM55 °FPassing clouds.6 mph82%29.98 "HgN/A
1:00 AM55 °FPassing clouds.7 mph82%29.98 "HgN/A
12:30 AM57 °FClear.8 mph82%29.98 "Hg10 mi
12:00 AM57 °FClear.3 mph82%29.98 "Hg10 mi
11:30 PM
Mon, May 25
57 °FClear.5 mph82%29.98 "Hg10 mi
11:00 PM57 °FPartly cloudy.5 mph82%29.98 "HgN/A
10:30 PM57 °FPassing clouds.3 mph82%29.98 "HgN/A
10:00 PM59 °FMostly cloudy.3 mph77%29.98 "HgN/A
9:30 PM57 °FPartly sunny.3 mph82%29.95 "HgN/A
9:00 PM59 °FBroken clouds.5 mph77%29.95 "HgN/A
8:30 PM59 °FPartly sunny.5 mph77%29.95 "HgN/A
8:00 PM61 °FBroken clouds.7 mph72%29.95 "HgN/A
7:30 PM61 °FPartly sunny.8 mph72%29.95 "HgN/A
7:00 PM59 °FPartly sunny.8 mph77%29.95 "HgN/A
6:30 PM59 °FBroken clouds.10 mph77%29.95 "HgN/A
6:00 PM61 °FMore clouds than sun.10 mph72%29.95 "HgN/A
Weather by CustomWeather, © 2015

See weather overviewHow to use our weather pages